Flag for Turkey Weather past 2 weeks in Mersin, Turkey

54 °F


Feels Like: 54 °F
Forecast: 40 / 62 °F
Wind: No wind

Location: Adana / Sakirpasa

Current Time: Nov 30, 2015 at 3:54:09 AM

Latest Report: Nov 30, 2015 at 2:50 AM

Visibility: 3 mi

Pressure: 30.01 "Hg

Humidity: 94%

Dew point: 52 °F

Location of MersinLocation

Historic Weather in Mersin — Graph


Mersin temperature yesterday

Maximum temperature yesterday: 70 °F (at 11:20 AM)
Minimum temperature yesterday: 54 °F (at 6:20 AM)
Average temperature yesterday: 61 °F

Past Weeks' High & Low Weather Summary

High79 °F (Nov 16, 12:50 PM)94% (Nov 29, 2:20 AM)30.21 "Hg (Nov 29, 2:20 AM)
Low43 °F (Nov 24, 6:20 AM)9% (Nov 23, 2:20 PM)29.74 "Hg (Nov 16, 12:50 PM)
Average62 °F49%30.03 "Hg
* Reported Nov 15 2:20 AM — Nov 30 2:20 AM, Mersin, Weather by CustomWeather, © 2015

Note: Actual official high and low records may vary slightly from our data, if they occured in-between our weather recording intervals... More about our weather records


Mersin weather history for previous 24 hours

Time TempWeatherWind HumidityBarometerVisibility
2:20 AM
Mon, Nov 30
54 °FFog.No wind94%30.01 "Hg3 mi
1:50 AM55 °FFog.1 mph88%30.01 "Hg3 mi
12:50 AM52 °FFog.5 mph94%30.01 "Hg3 mi
12:20 AM55 °FFog.No wind88%30.01 "Hg3 mi
11:50 PM
Sun, Nov 29
55 °FFog.2 mph88%30.01 "Hg3 mi
11:20 PM55 °FFog.No wind88%30.01 "Hg3 mi
10:50 PM55 °FFog.No wind88%30.01 "Hg3 mi
10:20 PM55 °FFog.2 mph88%30.04 "Hg3 mi
9:50 PM57 °FRain. Fog.No wind88%30.01 "Hg3 mi
9:20 PM57 °FRain. Fog.1 mph82%30.01 "Hg3 mi
8:50 PM57 °FRain. Fog.No wind82%30.01 "Hg3 mi
8:20 PM57 °FRain. Fog.No wind82%30.01 "Hg3 mi
7:50 PM57 °FFog.No wind77%30.01 "Hg3 mi
7:20 PM59 °FFog.No wind77%30.01 "Hg3 mi
6:50 PM59 °FFog.No wind77%30.01 "Hg3 mi
6:20 PM61 °FFog.No wind72%30.01 "Hg3 mi
5:50 PM61 °FPassing clouds.No wind72%30.01 "HgN/A
5:20 PM63 °FPassing clouds.No wind68%29.98 "HgN/A
4:50 PM63 °FPassing clouds.1 mph68%29.98 "HgN/A
4:20 PM66 °FPassing clouds.6 mph60%29.98 "HgN/A
3:50 PM68 °FPassing clouds.6 mph56%29.98 "HgN/A
3:20 PM70 °FScattered clouds.5 mph46%29.98 "HgN/A
2:50 PM70 °FScattered clouds.5 mph50%29.98 "HgN/A
2:20 PM70 °FScattered clouds.2 mph50%29.98 "HgN/A
1:50 PM70 °FScattered clouds.2 mph53%29.95 "HgN/A
1:20 PM70 °FScattered clouds.5 mph53%29.95 "HgN/A
12:50 PM70 °FScattered clouds.3 mph53%29.95 "HgN/A
12:20 PM70 °FScattered clouds.5 mph57%29.95 "HgN/A
11:20 AM70 °FScattered clouds.3 mph57%29.98 "HgN/A
10:50 AM68 °FPassing clouds.5 mph64%29.98 "HgN/A
10:20 AM66 °FPassing clouds.7 mph68%29.98 "HgN/A
9:50 AM64 °FPassing clouds.6 mph73%30.01 "HgN/A
8:50 AM63 °FPassing clouds.8 mph77%29.98 "HgN/A
8:20 AM61 °FPassing clouds.5 mph83%29.98 "HgN/A
6:50 AM55 °FFog.2 mph94%29.95 "Hg3 mi
6:20 AM54 °FFog.5 mph88%29.95 "Hg3 mi
5:50 AM55 °FFog.5 mph94%29.95 "Hg3 mi
5:20 AM57 °FFog.8 mph88%29.95 "Hg3 mi
4:50 AM57 °FFog.5 mph94%29.95 "Hg3 mi
4:20 AM57 °FFog.5 mph94%29.95 "Hg3 mi
3:50 AM57 °FFog.6 mph94%29.95 "Hg3 mi
3:20 AM59 °FFog.7 mph88%29.95 "Hg3 mi
Weather by CustomWeather, © 2015

See weather overviewHow to use our weather pages